User: anonymous   Login
Location: Muenchen
(48.1800°N, 11.5800°E)
Time: 16:32:09
(UTC+01:00)
Language:

Tiros 1 - Orbit

View from above orbital plane
View from above orbital plane
View from above satellite
View from above satellite

Ground track
Ground track

The orbit data is extracted from the following two-line orbital elements,

1 00029U 60002B   18049.37256723 -.00000102  00000-0  15792-4 0  9998
2 00029  48.3810   0.0276 0024176 197.4813 162.5269 14.74227667 93228
Epoch (UTC): 18 February 2018 08:56:29
Eccentricity: 0.0024176
inclination: 48.3810°
perigee height: 630 km
apogee height: 664 km
right ascension of ascending node: 0.0276°
argument of perigee: 197.4813°
revolutions per day: 14.74227667
mean anomaly at epoch: 162.5269°
orbit number at epoch: 9322

The dashed part of the orbit path shows where the satellite is in the earth's shadow,  

DLR